Meteo Giornale » Osservazioni meteo Stati Uniti (USA) » Broomfield-Jeffco

ore: 12:45 - Osservazioni Meteo Broomfield-Jeffco
Lat. 39° 55' N Lon. 105° 7' W Alt. 1724 metri s.l.m.

nuvoloso

28 °C

Nuvoloso

Temp. 24 Ore

16 °C

29 °C

Sud/Sud-Est

14.8 Km/h

Dew point 7 °C

Umidità 26 %

Visibilità  10 Km

Il sole sorge alle ore 06:28

Il sole tramonta alle ore 19:32

Data e Ora Cielo e Fenomeni T °C DP °C Um. % Pres. hPa Vis. km Vento km/h
Oggi h: 12:45 nuvoloso Nuvoloso 28 7 26 1021 10 S/SE 14.8
Oggi h: 10:45 sereno Sereno 24 11 43 1022 10 SE 7.4
Oggi h: 09:54 sereno Sereno 23 11 46 1022 10 O 16.7
Oggi h: 08:47 molto_nuvoloso Molto Nuvoloso 18 14 77 1021 10 S/SO 7.4
Oggi h: 08:31 molto_nuvoloso Molto Nuvoloso 17 14 82 1022 10 N 5.5
Oggi h: 07:45 poco_nuvoloso Poco Nuvoloso 17 14 82 1021 10 E/SE 9.3
Oggi h: 06:45 molto_nuvoloso Molto Nuvoloso 17 13 77 1020 10 O/NO 7.4
Oggi h: 06:15 sereno Sereno 16 13 82 1020 10 N 0
Oggi h: 05:55 sereno Sereno 16 13 82 1020 10 N 0
Oggi h: 05:45 molto_nuvoloso Molto Nuvoloso 16 13 82 1020 10 O 7.4
Oggi h: 05:35 sereno Sereno 16 13 82 1020 10 N 5.5
Oggi h: 05:15 sereno Sereno 16 13 82 1020 10 N 0
Oggi h: 04:55 sereno Sereno 16 13 82 1020 10 SO 7.4
Oggi h: 04:35 sereno Sereno 16 13 82 1021 10 SO 9.3
Oggi h: 04:15 sereno Sereno 16 14 87 1021 10 N 0
Oggi h: 03:55 sereno Sereno 16 13 82 1021 10 N 0
Oggi h: 03:35 nuvoloso Nuvoloso 16 13 82 1021 10 N 0
Oggi h: 03:15 molto_nuvoloso Molto Nuvoloso 16 14 87 1021 10 N 0
Oggi h: 02:55 molto_nuvoloso Molto Nuvoloso 17 14 82 1022 10 N 0
Oggi h: 02:35 molto_nuvoloso Molto Nuvoloso 17 13 77 1022 10 N 0
Oggi h: 02:15 coperto_pioggia Pioggia 17 15 88 1022 10 N 5.5
Oggi h: 01:55 coperto Coperto 17 15 88 1022 10 N 0
Oggi h: 01:35 coperto Coperto 17 15 88 1022 10 O 13
Oggi h: 01:15 coperto_pioggia Pioggia 17 15 88 1022 10 N 0
Oggi h: 00:55 coperto Coperto 17 15 88 1023 10 S/SE 9.3
Oggi h: 00:35 coperto_pioggia Pioggia 17 14 82 1022 11 N 0
Oggi h: 00:15 molto_nuvoloso Molto Nuvoloso 17 14 82 1023 10 S/SO 7.4
Ieri h: 23:55 nuvoloso Nuvoloso 17 13 77 1022 10 N 0
Ieri h: 23:35 molto_nuvoloso Molto Nuvoloso 18 13 72 1022 10 NO 9.3
Ieri h: 23:15 sereno Sereno 18 13 72 1022 10 NO 13
Ieri h: 22:55 sereno Sereno 17 13 77 1022 10 NO 11.1
Ieri h: 22:35 nuvoloso Nuvoloso 17 15 88 1022 10 O/NO 9.3
Ieri h: 22:15 nuvoloso Nuvoloso 17 15 88 1022 10 N 0
Ieri h: 21:55 coperto_pioggia Pioggia 18 14 77 1022 10 N 0
Ieri h: 21:35 coperto Coperto 17 15 88 1023 10 N 11.1
Ieri h: 21:15 coperto_pioggia Pioggia 17 15 88 1023 10 NO 9.3
Ieri h: 20:55 nuvoloso_temporali Temporale 17 14 82 1024 11 SO 14.8
Ieri h: 20:35 nuvoloso_temporali Temporale 18 13 72 1024 8 SO 16.7
Ieri h: 20:15 nuvoloso_temporali Temporale nelle vicinanze 22 9 43 1022 10 SO 18.5
Ieri h: 19:45 molto_nuvoloso Molto Nuvoloso 22 10 46 1021 10 O/NO 20.3
Ieri h: 18:45 coperto Coperto 23 10 43 1021 10 O 44.4
Ieri h: 17:45 molto_nuvoloso Molto Nuvoloso 28 5 23 1020 10 E/NE 14.8
Ieri h: 16:45 sereno Sereno 29 5 21 1020 10 E/NE 14.8
Ieri h: 15:45 sereno Sereno 29 5 21 1021 10 E 13
Ieri h: 14:45 sereno Sereno 28 5 23 1022 10 E 13
Ieri h: 13:45 sereno Sereno 27 5 24 1022 10 E/NE 9.3